Regional Weather Roundup
Issued by NWS

Home | Current Version | Previous Version | Text Only | Print | Product List | Glossary On
Versions: 1 2 3 4 5 6 7 8 9 10 11 12 13 14 15 16 17 18 19 20 21 22 23 24 25 26 27 28 29 30 31 32 33 34 35 36 37 38 39 40 41 42 43 44 45 46 47 48 49 50
000
ASUS43 KFSD 300210
RWRSD

WEATHER ROUNDUP FOR SOUTH DAKOTA
NATIONAL WEATHER SERVICE SIOUX FALLS SD
900 PM CDT TUE JUL 29 2014

NOTE: "FAIR" INDICATES FEW OR NO CLOUDS BELOW 12,000 FEET WITH NO
SIGNIFICANT WEATHER AND/OR OBSTRUCTIONS TO VISIBILITY.


SDZ001>005-009-010-012>017-300300-
NORTHWEST AND NORTH CENTRAL SOUTH DAKOTA

CITY           SKY/WX    TMP DP  RH WIND       PRES   REMARKS
BUFFALO          N/A     76  51  41 S5        30.11R
FAITH            N/A     73  52  47 SE8       30.15S
MOBRIDGE       PTCLDY    71  56  58 NE6       30.10S
$$

SDZ012>016-024>037-041>051-057-063-072>074-300300-
SOUTHWEST AND SOUTH CENTRAL SOUTH DAKOTA

CITY           SKY/WX    TMP DP  RH WIND       PRES   REMARKS
RAPID CTY ARPT CLOUDY    67  51  56 SW8       30.22R
PIERRE         CLEAR     74  54  49 N5        30.11S
CUSTER         CLOUDY    59  46  62 CALM      30.33R
ELLSWORTH AFB  MOCLDY    68  54  60 SW6       30.22R
PHILIP         PTCLDY    74  49  41 E6        30.14R
PINE RIDGE     CLOUDY    65  55  70 SE3       30.22S
WINNER         FAIR      75  51  43 CALM      30.14S
$$

SDZ004>011-016>023-039-040-300300-
NORTHEAST SOUTH DAKOTA

CITY           SKY/WX    TMP DP  RH WIND       PRES   REMARKS
ABERDEEN       CLEAR     69  55  60 CALM      30.11S
WATERTOWN      CLEAR     67  53  61 N3        30.12S
SISSETON         N/A     68  59  73 NW3       30.08F
$$

SDZ017-020-022-023-036>040-048>070-300300-
SOUTHEAST SOUTH DAKOTA

CITY           SKY/WX    TMP DP  RH WIND       PRES   REMARKS
SIOUX FALLS    PTCLDY    67  54  63 NW5       30.11F
HURON          CLEAR     70  54  56 NE5       30.10S
CHAMBERLAIN    PTCLDY    71  53  53 CALM      30.13R
MITCHELL       CLEAR     73  54  51 N5        30.11S
YANKTON        CLEAR     70  55  60 SE3       30.12S
$$

ABBREVIATIONS USED IN REMARKS
   TC - TEMPERATURE IN CELSIUS
  WCI - WIND CHILL INDEX
   HX - HEAT INDEX
  VSB - VISIBILITY




USA.gov is the U.S. government's official web portal to all federal, state and local government web resources and services.